Find Es'hailsat-2

NORAD ID: 43700 Int'l Des: 2018-090 Owner: ESHAIL Country: QA operational
HEOCIRCULARGSOGEO

Aktuelle Ansicht

3D-Globus wird geladen...

Über Es'hailsat-2

Beschreibung wird geladen...

Nächste Überflüge

Passes for default location (London). Set your location on the main map for personalized predictions.

Höhenverlauf

Loading altitude history...

Zweizeiliger Elementsatz

1 43700U 18090A 26150.15174416 .00000156 00000-0 00000+0 0 9996
2 43700 0.0174 314.1079 0001762 139.3705 234.6168 1.00270249 27494
Epoch: 30. Mai 2026 • Age: 13 hours

Aktueller Status

Höhe 35783.1 km
Geschwindigkeit 3.07 km/s
Subsatellitenpunkt -0.02°S, 25.81°E
Startdatum 15. Nov. 2018
Alter 7.5 years
Typ other

Technische Details

Klassifizierung Payload
Masse 5300.00 kg
Trockenmasse 2000.00 kg
Gesamtmasse 5300.00 kg
Länge 6.20 m
Durchmesser 3.80 m
Spannweite 25.30 m
Form Box + 2 pan
Hersteller MELCO
Bus-Typ DS-2000
Phasenstatus In Orbit
Besitzer/Staat ESHAIL/QA

Most Searched